Naples, FL

4:22 PM EDT on June 26, 2017 (GMT -0400)
Naples Municipal

Weather History for KAPF - March, 2014

Change the Weather History Date:

Saturday, March 1, 2014

  Actual Average Record
Temperature  
Mean Temperature 64 °F 69 °F  
Max Temperature 76 °F 79 °F 89 °F (1987)
Min Temperature 51 °F 59 °F 39 °F (1942)
Degree Days  
Heating Degree Days 1 1  
Month to date heating degree days 1 1  
Since 1 July heating degree days 143 234  
Cooling Degree Days 0 5  
Month to date cooling degree days 0 5  
Year to date cooling degree days 273 196  
Growing Degree Days 13 (Base 50)    
Moisture  
Dew Point 54 °F    
Average Humidity 72    
Maximum Humidity 100    
Minimum Humidity 44    
Precipitation  
Precipitation 0.00 in 0.05 in 1.13 in (1959)
Month to date precipitation 0.00 0.05  
Year to date precipitation 3.16 4.00  
Snow  
Snow 0.00 in - - ()
Month to date snowfall 0.0  
Since 1 July snowfall 0.0  
Snow Depth 0.00 in    
Sea Level Pressure  
Sea Level Pressure 30.13 in    
Wind  
Wind Speed 6 mph (North)    
Max Wind Speed 16 mph    
Max Gust Speed 18 mph    
Visibility 10 miles    
Events      
T = Trace of Precipitation, MM = Missing Value Source: NWS Daily Summary

Daily Weather History Graph

Daily Weather History Graph

Search for Another Location

Airport or City:

Trip Planner

Search our weather history database for the weather conditions in past years. The results will help you decide how hot, cold, wet, or windy it might be!

Date:

Astronomy

Mar. 01, 2014 Rise Set
Actual Time 6:50 AM EST 6:28 PM EST
Civil Twilight 6:27 AM EST 6:51 PM EST
Nautical Twilight 6:00 AM EST 7:18 PM EST
Astronomical Twilight 5:33 AM EST 7:45 PM EST
Moon 6:48 AM EST (3/1) 7:06 PM EST (3/1)
Length of Visible Light 12h 24m
Length of Day
11h 38m
New Moon, 0% of the Moon is Illuminated
Mar 1
New Moon
Mar 8
First Quarter
Mar 16
Full
Mar 23
Last Quarter
Mar 30
New

Hourly Weather History & Observations

Time (EST) Temp. Dew Point Humidity Pressure Visibility Wind Dir Wind Speed Gust Speed Precip Events Conditions
12:53 AM 57.0 °F 48.9 °F 74% 30.11 in 10.0 mi North 3.5 mph - N/A   Clear
1:53 AM 55.9 °F 46.9 °F 72% 30.09 in 10.0 mi NNE 3.5 mph - N/A   Clear
2:53 AM 54.0 °F 48.0 °F 80% 30.07 in 10.0 mi NNE 4.6 mph - N/A   Clear
3:53 AM 54.0 °F 51.1 °F 90% 30.07 in 10.0 mi NE 4.6 mph - N/A   Clear
4:53 AM 53.1 °F 52.0 °F 96% 30.09 in 10.0 mi NNE 3.5 mph - N/A   Clear
5:53 AM 52.0 °F 51.1 °F 97% 30.11 in 10.0 mi ENE 3.5 mph - N/A   Clear
6:53 AM 51.1 °F 51.1 °F 100% 30.13 in 9.0 mi ENE 4.6 mph - N/A   Clear
7:53 AM 55.9 °F 54.0 °F 93% 30.15 in 10.0 mi ENE 3.5 mph - N/A   Clear
8:53 AM 63.0 °F 55.0 °F 75% 30.18 in 10.0 mi ENE 5.8 mph - N/A   Clear
9:53 AM 69.1 °F 54.0 °F 58% 30.19 in 10.0 mi NE 4.6 mph - N/A   Clear
10:53 AM 72.0 °F 48.9 °F 44% 30.20 in 10.0 mi North 3.5 mph - N/A   Clear
11:53 AM 72.0 °F 48.0 °F 43% 30.19 in 10.0 mi WNW 8.1 mph - N/A   Clear
12:53 PM 73.9 °F 50.0 °F 43% 30.16 in 10.0 mi NW 10.4 mph - N/A   Clear
1:53 PM 75.0 °F 53.1 °F 46% 30.13 in 10.0 mi WNW 12.7 mph 16.1 mph N/A   Clear
2:53 PM 75.0 °F 54.0 °F 48% 30.12 in 10.0 mi NW 11.5 mph - N/A   Clear
3:53 PM 75.0 °F 55.9 °F 51% 30.10 in 10.0 mi WNW 10.4 mph - N/A   Clear
4:53 PM 73.0 °F 59.0 °F 61% 30.11 in 10.0 mi WNW 12.7 mph - N/A   Clear
5:53 PM 71.1 °F 57.9 °F 63% 30.12 in 10.0 mi NW 11.5 mph - N/A   Clear
6:53 PM 69.1 °F 59.0 °F 70% 30.12 in 10.0 mi NW 5.8 mph - N/A   Clear
7:53 PM 68.0 °F 59.0 °F 73% 30.14 in 10.0 mi North 5.8 mph - N/A   Clear
8:53 PM 66.0 °F 60.1 °F 81% 30.15 in 10.0 mi North 3.5 mph - N/A   Clear
9:53 PM 66.0 °F 57.9 °F 75% 30.15 in 10.0 mi Calm Calm - N/A   Clear
10:53 PM 64.0 °F 57.0 °F 78% 30.16 in 10.0 mi NE 5.8 mph - N/A   Clear
11:53 PM 62.1 °F 57.0 °F 84% 30.15 in 10.0 mi ENE 5.8 mph - N/A   Clear